Simultaneous Nadir Overpasses (SNOs) Predictions

Prediction of SNOs between NOAA-19 and TERRA Satellite Orbit:

Table of predicted SNOs for the next 14.0 days since TLE Epoch: 2/7/2017
Index Date (NOAA-19) Time (NOAA-19) Lat,Lon (NOAA-19) SZA (NOAA-19 ) Date (TERRA) Time (TERRA) Lat,Lon (TERRA) SZA (TERRA ) Distance(km) Time Diff (sec)
1 02/08/2017 06:17:52 74.96, 95.11 89.87 02/08/2017 06:18:40 74.96, 95.11 89.87 0.13 48
2 02/08/2017 07:08:52 -74.88, -97.42 90.22 02/08/2017 07:08:09 -74.88, -97.45 90.22 0.89 43
3 02/10/2017 11:51:46 -74.94,-168.25 90.87 02/10/2017 11:52:25 -74.94,-168.38 90.87 3.64 39
4 02/10/2017 12:42:46 74.91, -0.92 89.10 02/10/2017 12:41:51 74.92, -0.80 89.10 3.45 55
5 02/12/2017 17:25:40 74.95, -71.69 88.40 02/12/2017 17:26:07 74.96, -71.75 88.42 2.48 27
6 02/12/2017 18:16:39 -74.88, 95.78 91.68 02/12/2017 18:15:36 -74.89, 95.70 91.67 2.82 63
7 02/14/2017 22:59:34 -74.99, 24.77 92.32 02/14/2017 22:59:51 -74.99, 24.87 92.32 2.89 17
8 02/14/2017 23:50:32 74.81,-167.46 87.51 02/14/2017 23:49:19 74.86,-167.82 87.54 11.44 73
9 02/17/2017 04:33:28 74.95, 121.46 86.88 02/17/2017 04:33:34 74.95, 121.34 86.87 3.78 6
10 02/17/2017 05:24:18 -74.51, -69.99 93.54 02/17/2017 05:23:09 -74.57, -71.97 93.54 58.95 69
11 02/19/2017 09:16:34 75.55, 48.90 86.66 02/19/2017 09:17:41 75.43, 51.56 86.61 75.67 67
12 02/19/2017 10:07:20 -74.96,-141.97 93.90 02/19/2017 10:07:18 -74.96,-142.06 93.91 2.78 2
